Location: Great Falls
(47.5000°N, 111.3000°W)
Time: 11:41:09
(UTC-06:00)

ISS - Visible Passes

Search period start: 19 April 2025 00:00
Search period end: 29 April 2025 00:00
Orbit: 414 x 421 km, 51.6° (Epoch: 19 April)

Date Brightness Start Highest point End Pass type
(mag) Time Alt. Az. Time Alt. Az. Time Alt. Az.
20 Apr -2.3 05:49:02 10° SSW 05:52:01 31° SE 05:55:01 10° E visible
21 Apr -1.7 05:01:57 12° S 05:04:00 20° SE 05:06:33 10° E visible
22 Apr -1.3 04:15:40 13° SE 04:16:03 13° SE 04:17:39 10° ESE visible
23 Apr -3.1 05:02:13 21° SSW 05:04:07 45° SSE 05:07:21 10° ENE visible
24 Apr -2.6 04:15:46 29° SSE 04:15:58 29° SE 04:18:57 10° E visible
25 Apr -1.3 03:29:14 15° ESE 03:29:14 15° ESE 03:30:20 10° E visible
25 Apr -3.8 05:02:08 20° WSW 05:04:16 85° NNW 05:07:38 10° ENE visible
26 Apr -3.8 04:15:31 57° SSW 04:15:59 67° SSE 04:19:18 10° ENE visible
27 Apr -2.2 03:28:51 30° E 03:28:51 30° E 03:30:54 10° ENE visible
27 Apr -3.1 05:01:44 14° W 05:04:27 51° NNW 05:07:44 10° ENE visible
28 Apr -0.8 02:42:08 11° E 02:42:08 11° E 02:42:22 10° E visible
28 Apr -3.5 04:15:01 40° W 04:16:02 65° NNW 04:19:21 10° ENE visible
